Volver al catálogo

STARLINK-34300

ActivoComunicacionesVLEO
NORAD 64218·PAYLOAD·🇺🇸 United States

Lanzado May 31, 2025 desde Vandenberg Space Force Base

Loading…

Próximos Pases (próximas 24 horas)

TLE

ActualizadoSource: CelesTrak SupGP

Época: Sep 14, 2026, 21:14 UTC

1 64218C 25117R   26257.88520833  .00041655  00000+0  12307-2 0  2578
2 64218  53.1572 239.7109 0001412  97.7467  54.6070 15.34370078    16

Sigue STARLINK-34300 en tiempo real con AllMySat

Download on the App Store